This demonstration page uses our WeatherBlox Daily Observations layout. Learn more.

Left ArrowRight Arrow

Hourly Observations for May 18, 2017

Temp ( °F °C ) Dew Point ( °F °C ) Humidity (%) Winds ( mph kmh ) Pressure ( in mb ) Visibility ( mi km ) Precip ( " mm )
12:15 am 00:15 Clear 81 27 64 18 58 58 SW 5 7 29.97 1015 10 16 N/A
12:35 am 00:35 Clear 81 27 64 18 58 58 SW 6 9 29.97 1015 10 16 N/A
12:55 am 00:55 Clear 79 26 64 18 61 61 SW 5 7 29.97 1015 10 16 N/A
1:15 am 01:15 Clear 79 26 64 18 61 61 SSW 3 6 29.97 1015 10 16 N/A
1:35 am 01:35 Clear 79 26 64 18 61 61 S 3 6 29.97 1015 10 16 N/A
1:55 am 01:55 Clear 79 26 64 18 61 61 SSW 3 6 29.97 1015 10 16 N/A
2:15 am 02:15 Clear 77 25 64 18 65 65 N N/A 29.97 1015 10 16 N/A
2:35 am 02:35 Clear 77 25 64 18 65 65 S 5 7 29.97 1015 10 16 N/A
2:55 am 02:55 Clear 75 24 64 18 69 69 S 6 9 29.97 1015 10 16 N/A
3:15 am 03:15 Clear 73 23 64 18 74 74 S 5 7 29.97 1015 10 16 N/A
3:35 am 03:35 Clear 73 23 64 18 74 74 SSW 3 6 29.97 1015 10 16 N/A
3:55 am 03:55 Clear 70 21 64 18 83 83 N N/A 29.97 1015 10 16 N/A
4:15 am 04:15 Clear 72 22 64 18 78 78 S 6 9 29.97 1015 10 16 N/A
4:35 am 04:35 Clear 70 21 63 17 78 78 N N/A 29.97 1015 10 16 N/A
4:55 am 04:55 Clear 70 21 64 18 83 83 N N/A 29.97 1015 10 16 N/A
5:15 am 05:15 Clear 70 21 64 18 83 83 N N/A 30.00 1016 10 16 N/A
5:35 am 05:35 Clear 70 21 64 18 83 83 N N/A 30.00 1016 10 16 N/A
5:55 am 05:55 Sunny 68 20 64 18 88 88 N N/A 30.00 1016 10 16 N/A
6:15 am 06:15 Sunny 68 20 64 18 88 88 N N/A 30.00 1016 10 16 N/A
6:35 am 06:35 Sunny 68 20 64 18 88 88 N N/A 30.00 1016 10 16 N/A
6:55 am 06:55 Sunny 70 21 64 18 83 83 N N/A 30.03 1017 10 16 N/A
7:15 am 07:15 Sunny 72 22 64 18 78 78 S 3 6 30.03 1017 10 16 N/A
7:35 am 07:35 Sunny 70 21 64 18 83 83 N N/A 30.03 1017 10 16 N/A
7:55 am 07:55 Sunny 72 22 64 18 78 78 N N/A 30.03 1017 10 16 N/A
8:15 am 08:15 Sunny 73 23 64 18 74 74 N N/A 30.03 1017 10 16 N/A
8:35 am 08:35 Sunny 77 25 64 18 65 65 S 3 6 30.03 1017 10 16 N/A
8:55 am 08:55 Sunny 77 25 66 19 69 69 SW 3 6 30.06 1018 10 16 N/A
9:15 am 09:15 Mostly Cloudy 77 25 66 19 69 69 SW 3 6 30.06 1018 10 16 N/A
9:35 am 09:35 Mostly Cloudy 79 26 68 20 70 70 SW 3 6 30.06 1018 10 16 N/A
9:55 am 09:55 Mostly Cloudy 81 27 68 20 66 66 SW 6 9 30.03 1017 10 16 N/A
10:15 am 10:15 Partly Cloudy 81 27 68 20 66 66 SSW 6 9 30.03 1017 10 16 N/A
10:35 am 10:35 Hazy 82 28 68 20 62 62 S 8 13 30.03 1017 4 6 N/A
10:55 am 10:55 Sunny 86 30 68 20 55 55 S 6 9 30.03 1017 10 16 N/A
11:15 am 11:15 Sunny 86 30 68 20 55 55 SW 7 11 30.03 1017 10 16 N/A
11:35 am 11:35 Sunny 88 31 68 20 52 52 SSW 8 13 30.00 1016 10 16 N/A
11:55 am 11:55 Sunny 88 31 68 20 52 52 SSW 9 15 29.97 1015 10 16 N/A
12:15 pm 12:15 Sunny 88 31 68 20 52 52 SSW 8 13 29.97 1015 10 16 N/A
12:35 pm 12:35 Sunny 90 32 68 20 49 49 S 6 9 29.97 1015 10 16 N/A
12:55 pm 12:55 Sunny 90 32 68 20 49 49 SSW 10 17 29.97 1015 10 16 N/A
1:15 pm 13:15 Sunny 91 33 68 20 46 46 SSW 6 9 29.97 1015 10 16 N/A
1:35 pm 13:35 Sunny 91 33 68 20 46 46 SSW 7 11 29.97 1015 10 16 N/A
1:55 pm 13:55 Sunny 91 33 68 20 46 46 W 6 9 29.94 1014 10 16 N/A
2:15 pm 14:15 Sunny 91 33 68 20 46 46 SW 3 6 29.94 1014 10 16 N/A
2:35 pm 14:35 Sunny 93 34 68 20 44 44 SSW 9 15 29.91 1013 10 16 N/A
2:55 pm 14:55 Sunny 91 33 64 18 41 41 S 10 17 29.91 1013 10 16 N/A
3:15 pm 15:15 Sunny 93 34 66 19 41 41 WSW 8 13 29.91 1013 10 16 N/A
3:35 pm 15:35 Sunny 95 35 68 20 41 41 S 8 13 29.91 1013 10 16 N/A
3:55 pm 15:55 Sunny 93 34 66 19 41 41 WSW 9 15 29.91 1013 10 16 N/A
4:15 pm 16:15 Sunny 91 33 66 19 44 44 SSW 12 19 29.91 1013 10 16 N/A
4:35 pm 16:35 Partly Cloudy 93 34 68 20 44 44 SSW 10 17 29.88 1012 10 16 N/A
4:55 pm 16:55 Sunny 91 33 68 20 46 46 SSW 13 20 29.88 1012 10 16 N/A
5:15 pm 17:15 Mostly Cloudy 90 32 68 20 49 49 SSW 10 17 29.91 1013 10 16 N/A
5:35 pm 17:35 Cloudy 90 32 68 20 49 49 SSW 10 17 29.91 1013 10 16 N/A
5:55 pm 17:55 Mostly Cloudy 88 31 68 20 52 52 SSW 9 15 29.88 1012 10 16 N/A
6:15 pm 18:15 Partly Cloudy 88 31 70 21 55 55 SSW 5 7 29.91 1013 10 16 N/A
6:35 pm 18:35 Partly Cloudy with Nearby Thunderstorms 88 31 70 21 55 55 S 5 7 29.88 1012 10 16 N/A
6:55 pm 18:55 Mostly Cloudy 84 29 72 22 66 66 S 3 6 29.94 1014 10 16 N/A
7:15 pm 19:15 Cloudy with Thunderstorms 79 26 75 24 89 89 W 15 24 29.97 1015 5 8 0.02 0.51
7:35 pm 19:35 Cloudy with Strong Thunderstorms 73 23 73 23 100 100 W 9 15 29.97 1015 2 3 0.17 4.32
7:55 pm 19:55 Cloudy with Thunderstorms 73 23 72 22 94 94 S 12 19 29.94 1014 10 16 0.23 5.84
8:15 pm 20:15 Partly Cloudy with Thunderstorms 73 23 73 23 100 100 WSW 6 9 29.97 1015 10 16 N/A
8:35 pm 20:35 Clear with Nearby Thunderstorms 73 23 72 22 94 94 SSW 8 13 29.97 1015 10 16 N/A
8:55 pm 20:55 Clear with Nearby Thunderstorms 72 22 70 21 94 94 SSW 7 11 29.97 1015 10 16 N/A
9:15 pm 21:15 Clear 70 21 70 21 100 100 SW 9 15 29.97 1015 10 16 N/A
9:35 pm 21:35 Clear 70 21 68 20 94 94 SW 5 7 29.97 1015 10 16 N/A
9:55 pm 21:55 Clear 70 21 68 20 94 94 SSW 7 11 29.97 1015 10 16 N/A
10:15 pm 22:15 Clear 70 21 68 20 94 94 SW 6 9 29.97 1015 10 16 N/A
10:35 pm 22:35 Clear 70 21 68 20 94 94 SW 5 7 29.97 1015 10 16 N/A
10:55 pm 22:55 Clear 70 21 70 21 100 100 SW 6 9 29.97 1015 10 16 N/A
11:15 pm 23:15 Clear 70 21 70 21 100 100 W 5 7 29.97 1015 10 16 N/A
11:35 pm 23:35 Clear 70 21 70 21 100 100 W 5 7 29.97 1015 10 16 N/A
11:55 pm 23:55 Clear 70 21 70 21 100 100 W 7 11 29.97 1015 10 16 N/A

Powered by AerisWeather